Flag for Micronesia Weather past 2 weeks in Colonia, Yap, Micronesia

Now
84 °F

Cloudy.


Feels Like: 94 °F
Forecast: 80 / 85 °F
Wind: 14 mph from West

Location: Yap Island

Current Time: Aug 4, 2015 at 10:24:33 AM

Latest Report: Aug 4, 2015 at 9:54 AM


Visibility: 12 mi

Pressure: 29.70 "Hg

Humidity: 81%

Dew point: 78 °F

Location of ColoniaLocation

Historic Weather in Colonia — Graph

°F

Colonia temperature yesterday

Maximum temperature yesterday: 89 °F (at 1:53 PM)
Minimum temperature yesterday: 79 °F (at 4:53 PM)
Average temperature yesterday: 84 °F

Past Weeks' High & Low Weather Summary

 TemperatureHumidityPressure
High89 °F (Aug 3, 1:53 PM)100% (Aug 2, 2:55 AM)29.95 "Hg (Aug 2, 2:55 AM)
Low75 °F (Jul 22, 7:50 AM)47% (Jul 20, 11:50 PM)29.65 "Hg (Aug 4, 6:52 AM)
Average82 °F83%29.83 "Hg
* Reported Jul 20 8:50 AM — Aug 4 8:52 AM, Colonia, Weather by CustomWeather, © 2015

Note: Actual official high and low records may vary slightly from our data, if they occured in-between our weather recording intervals... More about our weather records

Advertising

Colonia weather history for previous 24 hours

 ConditionsComfort  
Time TempWeatherWind HumidityBarometerVisibility
8:52 AM
Tue, Aug 4
83 °FCloudy.12 mph84%29.70 "Hg12 mi
7:51 AM83 °FCloudy.9 mph82%29.68 "Hg12 mi
6:52 AM83 °FPassing clouds.10 mph83%29.65 "Hg12 mi
5:50 AM80 °FPassing clouds.9 mph88%29.65 "Hg12 mi
4:53 AM82 °FPassing clouds.8 mph85%29.65 "Hg12 mi
3:53 AM83 °FPassing clouds.9 mph82%29.67 "Hg12 mi
2:50 AM83 °FPassing clouds.16 mph82%29.67 "Hg12 mi
1:52 AM82 °FPassing clouds.12 mph84%29.67 "Hg12 mi
12:52 AM80 °FPartly cloudy.9 mph86%29.69 "Hg12 mi
11:53 PM
Mon, Aug 3
83 °FPartly cloudy.16 mph81%29.73 "Hg12 mi
10:53 PM83 °FPartly cloudy.12 mph83%29.71 "Hg12 mi
9:52 PM83 °FPassing clouds.12 mph81%29.72 "Hg12 mi
8:51 PM83 °FMostly cloudy.16 mph84%29.71 "Hg12 mi
7:55 PM82 °FMostly cloudy.14 mph87%29.70 "Hg12 mi
6:55 PM82 °FCloudy.12 mph87%29.69 "Hg12 mi
5:54 PM82 °FSprinkles. Mostly cloudy.16 mph87%29.67 "Hg9 mi
4:53 PM79 °FLots of rain. Mostly cloudy.14 mph91%29.67 "Hg4 mi
3:52 PM84 °FMore clouds than sun.14 mph78%29.67 "Hg12 mi
2:52 PM88 °FMore clouds than sun.9 mph70%29.68 "Hg12 mi
1:53 PM89 °FMore clouds than sun.9 mph71%29.70 "Hg12 mi
12:51 PM88 °FMore clouds than sun.10 mph73%29.71 "Hg12 mi
11:52 AM88 °FMore clouds than sun.9 mph73%29.72 "Hg12 mi
10:50 AM88 °FMore clouds than sun.9 mph69%29.74 "Hg12 mi
Weather by CustomWeather, © 2015

See weather overviewHow to use our weather pages